Simultaneous Nadir Overpasses (SNOs) Predictions

Prediction of SNOs between NOAA-19 and METOP-C Satellite Orbit:

Table of predicted SNOs for the next 14.0 days since TLE Epoch: 8/2/2019
Index Date (NOAA-19) Time (NOAA-19) Lat,Lon (NOAA-19) SZA (NOAA-19 ) Date (METOP-C) Time (METOP-C) Lat,Lon (METOP-C) SZA (METOP-C ) Distance(km) Time Diff (sec)
1 08/03/2019 13:49:42 -79.40, 169.27 117.74 08/03/2019 13:50:51 -79.37, 169.25 117.76 3.42 69
2 08/03/2019 14:40:44 79.40, -23.45 62.27 08/03/2019 14:41:32 79.38, -23.37 62.27 2.59 48
3 08/03/2019 15:31:42 -79.38, 143.98 117.73 08/03/2019 15:32:12 -79.39, 144.06 117.71 2.12 30
4 08/03/2019 16:22:44 79.38, -48.73 62.28 08/03/2019 16:22:54 79.37, -48.82 62.27 2.09 10
5 08/03/2019 17:13:42 -79.36, 118.70 117.72 08/03/2019 17:13:34 -79.38, 118.61 117.71 3.02 8
6 08/03/2019 18:04:45 79.38, -74.28 62.30 08/03/2019 18:04:16 79.35, -74.27 62.27 3.19 29
7 08/03/2019 18:55:43 -79.36, 93.14 117.70 08/03/2019 18:54:56 -79.37, 93.16 117.71 0.54 47
8 08/03/2019 19:46:45 79.36, -99.56 62.31 08/03/2019 19:45:37 79.37, -99.45 62.31 2.85 68
9 08/14/2019 13:21:38 -79.41, 176.63 114.56 08/14/2019 13:22:53 -79.40, 176.47 114.56 3.45 75
10 08/14/2019 14:12:43 79.43, -16.30 65.46 08/14/2019 14:13:34 79.40, -16.21 65.45 3.39 51
11 08/14/2019 15:03:38 -79.42, 151.06 114.53 08/14/2019 15:04:14 -79.39, 151.02 114.56 3.43 36
12 08/14/2019 15:54:42 79.41, -41.58 65.48 08/14/2019 15:54:55 79.39, -41.66 65.46 2.60 13
13 08/14/2019 16:45:38 -79.40, 125.78 114.52 08/14/2019 16:45:35 -79.41, 125.83 114.51 1.83 3
14 08/14/2019 17:36:42 79.38, -66.86 65.49 08/14/2019 17:36:16 79.41, -66.85 65.51 2.90 26
15 08/14/2019 18:27:38 -79.37, 100.49 114.51 08/14/2019 18:26:57 -79.40, 100.38 114.51 3.35 41
16 08/14/2019 19:18:43 79.39, -92.42 65.51 08/14/2019 19:17:38 79.39, -92.30 65.51 2.56 65




NCC Satellite Simultaneous Nadir Overpasses (SNOs) Prediction Service
